1512802800.33,1038,4.81,71846.3,-11.69,-13.83,-13.83,0,*55
1512802801.6,1039,4.81,71844.5,-11.71,-13.73,-13.61,0,*5E
1512802802.84,1040,4.81,71850.3,-11.69,-13.69,-13.61,0,*52
1512802804.1,1041,4.81,71848.8,-11.69,-13.61,-13.61,0,*5B
1512802805.34,1042,4.75,71844.8,-11.69,-13.83,-13.69,0,*5C
1512802806.58,1043,4.81,71846.3,-11.71,-13.73,-13.69,0,*5B
1512802807.78,1044,4.81,71848.0,-11.69,-13.69,-13.69,0,*5E
1512802808.99,1045,4.81,71844.8,-11.69,-13.55,-13.43,0,*58
1512802810.22,1046,4.81,71848.5,-11.69,-13.43,-13.37,0,*5F
1512802811.46,1047,4.81,71848.0,-11.69,-13.43,-13.37,0,*5E
1512802812.72,1048,4.75,71844.5,-11.71,-13.43,-13.37,0,*58
1512802813.93,1049,4.81,71850.0,-11.69,-13.43,-13.43,0,*53
1512802815.14,1050,4.81,71852.0,-11.69,-13.51,-13.43,0,*58
1512802816.35,1051,4.81,71848.8,-11.69,-13.43,-13.43,0,*5A
1512802817.6,1052,4.81,71848.5,-11.67,-13.37,-13.47,0,*50
1512802818.83,1053,4.81,71846.5,-11.65,-13.47,-13.37,0,*53
1512802820.09,1054,4.81,71844.8,-11.67,-13.47,-13.33,0,*52
1512802821.38,1055,4.81,71844.0,-11.67,-13.37,-13.33,0,*54
1512802822.64,1056,4.81,71840.5,-11.65,-13.37,-13.33,0,*55
1512802823.87,1057,4.81,71844.5,-11.65,-13.47,-13.33,0,*53
1512802825.16,1058,4.81,71840.5,-11.67,-13.37,-13.37,0,*5D
1512802826.37,1059,4.81,71842.8,-11.65,-13.51,-13.47,0,*59
1512802827.58,1060,4.81,71842.5,-11.65,-13.69,-13.65,0,*58
1512802828.81,1061,4.81,71844.3,-11.67,-13.69,-13.65,0,*5B
1512802830.06,1062,4.81,71844.5,-11.65,-13.79,-13.79,0,*56
1512802831.29,1063,4.81,71844.0,-11.65,-13.93,-13.79,0,*53
1512802832.49,1064,4.81,71844.5,-11.65,-13.69,-13.69,0,*50
1512802833.75,1065,4.81,71844.3,-11.67,-13.79,-13.65,0,*5E
1512802834.96,1066,4.81,71848.5,-11.65,-13.65,-13.55,0,*51
1512802836.17,1067,4.81,71854.5,-11.65,-13.55,-13.65,0,*50
1512802837.37,1068,4.81,71850.3,-11.65,-13.65,-13.55,0,*5F
1512802838.64,1069,4.81,71848.5,-11.67,-13.51,-13.37,0,*5F
1512802839.92,1070,4.81,71848.0,-11.67,-13.37,-13.37,0,*57
1512802841.18,1071,4.75,71846.0,-11.65,-13.37,-13.37,0,*54
1512802842.39,1072,4.81,71844.8,-11.65,-13.65,-13.65,0,*57
1512802843.62,1073,4.81,71844.8,-11.65,-13.47,-13.37,0,*51
1512802844.85,1074,4.81,71844.5,-11.65,-13.37,-13.47,0,*56
1512802846.05,1075,4.81,71846.0,-11.65,-13.47,-13.47,0,*50
1512802847.26,1076,4.81,71844.5,-11.65,-13.51,-13.65,0,*54
1512802848.47,1077,4.81,71844.0,-11.65,-13.65,-13.55,0,*51
1512802849.7,1078,4.81,71844.0,-11.61,-13.87,-13.73,0,*52
1512802850.95,1079,4.81,71844.0,-11.65,-13.79,-13.79,0,*5C
1512802852.16,1080,4.81,71844.3,-11.65,-13.65,-13.51,0,*5D
1512802853.37,1081,4.81,71842.5,-11.65,-13.55,-13.65,0,*58
1512802854.61,1082,4.81,71846.3,-11.65,-14.05,-13.93,0,*50
1512802855.87,1083,4.81,71848.0,-11.65,-14.05,-14.05,0,*59
1512802857.14,1084,4.81,71846.0,-11.65,-13.97,-14.05,0,*52
1512802858.35,1085,4.81,71844.5,-11.65,-14.11,-14.11,0,*5F
1512802859.59,1086,4.81,71850.5,-11.67,-14.23,-14.33,0,*5F
1512802860.83,1087,4.81,71850.5,-11.67,-14.19,-14.33,0,*57
1512802862.05,1088,4.81,71850.0,-11.65,-14.23,-14.23,0,*52
1512802863.31,1089,4.81,71846.8,-11.67,-14.33,-14.43,0,*56
1512802864.54,1090,4.81,71850.0,-11.67,-14.33,-14.33,0,*59
1512802865.78,1091,4.81,71846.5,-11.67,-14.11,-14.23,0,*59
1512802867.03,1092,4.81,71846.5,-11.71,-14.15,-14.29,0,*53
1512802868.25,1093,4.81,71846.0,-11.69,-14.15,-14.15,0,*54
1512802869.47,1094,4.81,71846.0,-11.69,-14.23,-14.23,0,*53
1512802870.69,1095,4.81,71846.0,-11.69,-14.23,-14.23,0,*52
1512802871.94,1096,4.81,71840.5,-11.71,-14.15,-14.11,0,*5C
1512802873.19,1097,4.81,71842.3,-11.71,-14.15,-14.15,0,*59
1512802874.41,1098,4.81,71844.3,-11.69,-14.15,-14.23,0,*5A
1512802875.64,1099,4.81,71846.3,-11.69,-14.37,-14.43,0,*5D
1512802876.89,1100,4.81,71844.3,-11.71,-14.23,-14.23,0,*56
1512802878.14,1101,4.81,71846.5,-11.71,-14.23,-14.29,0,*5D
1512802879.38,1102,4.81,71844.3,-11.71,-14.29,-14.29,0,*54
1512802880.65,1103,4.81,71846.0,-11.71,-14.55,-14.69,0,*5A
1512802881.88,1104,4.81,71844.8,-11.73,-14.61,-14.65,0,*54
1512802883.14,1105,4.81,71846.5,-11.75,-14.43,-14.43,0,*57
1512802884.43,1106,4.81,71846.3,-11.73,-14.43,-14.47,0,*56
1512802885.72,1107,4.81,71850.0,-11.73,-14.43,-14.47,0,*57
1512802886.98,1108,4.81,71844.3,-11.73,-14.47,-14.61,0,*58
1512802888.25,1109,4.81,71842.0,-11.75,-14.51,-14.51,0,*5B
1512802889.51,1110,4.81,71840.3,-11.75,-14.43,-14.47,0,*57
1512802890.75,1111,4.81,71844.0,-11.81,-14.33,-14.23,0,*58
1512802891.97,1112,4.81,71842.8,-11.79,-14.37,-14.37,0,*5D
1512802893.21,1113,4.81,71840.8,-11.75,-14.47,-14.61,0,*54
1512802894.46,1114,4.81,71840.5,-11.79,-14.55,-14.65,0,*58
1512802895.75,1115,4.81,71838.5,-11.81,-14.55,-14.55,0,*5D
1512802897.04,1116,4.81,71842.5,-11.81,-14.55,-14.55,0,*5E
1512802898.32,1117,4.81,71844.0,-11.81,-14.47,-14.37,0,*58
1512802899.53,1118,4.81,71846.3,-11.83,-14.29,-14.37,0,*5D
1512802900.74,1119,4.81,71842.8,-11.83,-14.11,-14.11,0,*53
1512802901.98,1120,4.81,71846.8,-11.81,-14.11,-14.11,0,*5B
1512802903.24,1121,4.81,71846.5,-11.83,-14.43,-14.43,0,*58
1512802904.5,1122,4.81,71840.8,-11.83,-14.43,-14.43,0,*5B
1512802905.76,1123,4.81,71842.0,-11.83,-14.43,-14.43,0,*5A
1512802907.02,1124,4.81,71844.5,-11.85,-14.37,-14.43,0,*58
1512802908.28,1125,4.81,71844.0,-11.85,-14.55,-14.69,0,*55
1512802909.55,1126,4.81,71844.5,-11.83,-14.51,-14.51,0,*5F
1512802910.83,1127,4.81,71844.0,-11.85,-14.43,-14.43,0,*58
1512802912.07,1128,4.81,71842.3,-11.85,-14.29,-14.23,0,*5D
1512802913.31,1129,4.81,71842.0,-11.85,-14.37,-14.29,0,*59
1512802914.57,1130,4.81,71844.0,-11.85,-14.37,-14.43,0,*5D
1512802915.86,1131,4.81,71846.3,-11.85,-14.43,-14.51,0,*5C
1512802917.13,1132,4.75,71840.8,-11.87,-14.55,-14.55,0,*5E
1512802918.36,1133,4.81,71844.0,-11.87,-14.33,-14.43,0,*58
1512802919.63,1134,4.81,71846.0,-11.87,-14.47,-14.43,0,*5C
1512802920.9,1135,4.81,71842.8,-11.87,-14.43,-14.47,0,*5D
1512802922.14,1136,4.81,71842.5,-11.89,-14.29,-14.29,0,*54
1512802923.36,1137,4.75,71838.5,-11.87,-14.15,-14.19,0,*57
1512802924.61,1138,4.81,71840.5,-11.89,-14.15,-14.15,0,*5A
1512802925.85,1139,4.81,71846.3,-11.89,-14.29,-14.33,0,*50
1512802927.14,1140,4.81,71842.0,-11.89,-14.01,-14.05,0,*51
1512802928.37,1141,4.81,71842.0,-11.89,-13.93,-13.93,0,*54
1512802929.66,1142,4.81,71844.0,-11.89,-14.05,-14.05,0,*57
1512802930.88,1143,4.81,71844.3,-11.87,-14.29,-14.19,0,*5B
1512802932.12,1144,4.81,71842.0,-11.89,-14.15,-14.15,0,*51
1512802933.4,1145,4.81,71840.3,-11.89,-14.43,-14.43,0,*50
1512802934.64,1146,4.81,71840.5,-11.89,-14.29,-14.33,0,*58
1512802935.88,1147,4.81,71838.0,-11.89,-14.33,-14.33,0,*52
1512802937.12,1148,4.81,71836.5,-11.89,-14.19,-14.15,0,*51
1512802938.35,1149,4.81,71840.3,-11.89,-13.93,-13.93,0,*5C
1512802939.58,1150,4.81,71838.3,-11.89,-13.93,-13.73,0,*5A
1512802940.85,1151,4.81,71838.0,-11.89,-14.15,-14.01,0,*50
1512802942.14,1152,4.81,71840.3,-11.89,-14.01,-13.79,0,*5E
1512802943.41,1153,4.81,71842.3,-11.89,-14.19,-14.01,0,*5E
1512802944.67,1154,4.81,71840.8,-11.89,-14.05,-13.93,0,*58
1512802945.96,1155,4.81,71838.8,-11.89,-14.01,-13.87,0,*58
1512802947.25,1156,4.81,71838.8,-11.89,-14.01,-13.87,0,*5B
1512802948.48,1157,4.81,71836.3,-11.89,-13.93,-13.73,0,*5D
1512802949.71,1158,4.81,71842.0,-11.87,-13.87,-13.73,0,*59
1512802950.97,1159,4.81,71844.0,-11.89,-13.87,-13.69,0,*5D
1512802952.22,1160,4.81,71846.3,-11.89,-13.93,-13.79,0,*53
1512802953.48,1161,4.81,71844.5,-11.89,-14.29,-14.05,0,*58
1512802954.7,1162,4.81,71844.5,-11.91,-14.33,-14.23,0,*5D
1512802955.91,1163,4.81,71844.5,-11.91,-14.23,-14.11,0,*5C
1512802957.18,1164,4.81,71840.8,-11.91,-13.97,-13.83,0,*5F
1512802958.42,1165,4.81,71842.3,-11.91,-14.19,-14.05,0,*56
1512802959.69,1166,4.81,71840.8,-11.91,-13.83,-13.83,0,*58
1512802960.94,1167,4.81,71844.0,-11.89,-13.93,-13.79,0,*54
1512802962.18,1168,4.81,71846.0,-11.91,-14.11,-13.83,0,*5A
1512802963.42,1169,4.81,71844.5,-11.91,-14.11,-14.05,0,*52
1512802964.64,1170,4.81,71844.8,-11.91,-14.23,-14.19,0,*56
1512802965.88,1171,4.81,71846.8,-11.91,-14.11,-14.05,0,*5B
1512802967.15,1172,4.81,71850.3,-11.91,-13.97,-13.83,0,*58
1512802968.37,1173,4.81,71844.5,-11.91,-13.93,-13.79,0,*58
1512802969.64,1174,4.75,71842.3,-11.91,-13.97,-13.83,0,*5E
1512802970.87,1175,4.81,71844.0,-11.91,-13.93,-13.79,0,*5E
1512802972.13,1176,4.81,71848.3,-11.91,-13.97,-13.83,0,*5C
1512802973.37,1177,4.81,71850.5,-11.91,-13.93,-13.83,0,*59
1512802974.59,1178,4.81,71844.0,-11.91,-13.93,-13.79,0,*53
1512802975.83,1179,4.81,71844.5,-11.95,-13.79,-13.65,0,*5F
1512802977.07,1180,4.81,71844.0,-11.87,-13.69,-13.61,0,*5F
1512802978.33,1181,4.81,71846.3,-11.89,-13.79,-13.69,0,*59
1512802979.59,1182,4.81,71842.3,-11.89,-13.73,-13.61,0,*58
1512802980.85,1183,4.81,71844.3,-11.89,-13.69,-13.61,0,*52
1512802982.11,1184,4.81,71846.3,-11.89,-13.69,-13.61,0,*55
1512802983.38,1185,4.81,71846.0,-11.89,-13.61,-13.55,0,*5B
1512802984.61,1186,4.81,71844.3,-11.89,-13.73,-13.69,0,*54
1512802985.84,1187,4.81,71842.3,-11.89,-13.93,-13.93,0,*5E
1512802987.09,1188,4.81,71844.5,-11.89,-13.93,-13.87,0,*54
1512802988.33,1189,4.81,71844.5,-11.87,-13.79,-13.73,0,*54
1512802989.56,1190,4.81,71840.8,-11.87,-13.79,-13.73,0,*5C
1512802990.82,1191,4.81,71844.3,-11.89,-13.87,-13.73,0,*52
1512802992.06,1192,4.81,71850.0,-11.87,-13.87,-13.73,0,*5F
1512802993.33,1193,4.81,71846.0,-11.87,-14.01,-13.87,0,*5C
1512802994.59,1194,4.81,71848.3,-11.89,-14.05,-13.93,0,*54
1512802995.83,1195,4.81,71846.3,-11.89,-14.33,-14.19,0,*55
1512802997.04,1196,4.81,71846.3,-11.91,-14.33,-14.23,0,*56
1512802998.28,1197,4.81,71844.3,-11.91,-14.11,-14.05,0,*53
1512802999.53,1198,4.81,71848.8,-11.91,-14.19,-14.05,0,*54
1512803000.77,1199,4.81,71846.8,-11.91,-14.11,-13.97,0,*51
1512803002.02,1200,4.81,71846.3,-11.91,-14.19,-14.05,0,*56
1512803003.22,1201,4.81,71844.3,-11.91,-13.93,-13.93,0,*5A
1512803004.48,1202,4.81,71846.0,-11.89,-13.87,-13.73,0,*5B
1512803005.73,1203,4.81,71844.3,-11.91,-13.79,-13.79,0,*58
1512803006.96,1204,4.81,71846.5,-11.91,-13.93,-13.79,0,*5B
1512803008.17,1205,4.81,71846.5,-11.91,-13.93,-13.93,0,*5E
1512803009.43,1206,4.81,71844.8,-11.91,-13.83,-13.79,0,*58
1512803010.66,1207,4.81,71846.0,-11.91,-13.79,-13.73,0,*56
1512803011.91,1208,4.81,71844.0,-11.91,-14.11,-13.97,0,*5A
1512803013.12,1209,4.81,71840.3,-11.91,-14.33,-14.23,0,*53
1512803014.33,1210,4.81,71846.3,-11.91,-14.33,-14.19,0,*52
1512803015.57,1211,4.81,71846.5,-11.95,-14.05,-13.93,0,*57
1512803016.79,1212,4.81,71846.8,-11.91,-14.19,-14.11,0,*50
1512803018.03,1213,4.81,71846.3,-11.91,-14.11,-14.05,0,*5C
1512803019.3,1214,4.81,71848.8,-11.95,-13.97,-13.83,0,*5F
1512803020.52,1215,4.81,71846.5,-11.91,-13.93,-13.79,0,*5B
1512803021.76,1216,4.81,71844.0,-11.95,-13.97,-13.93,0,*5C
1512803023.03,1217,4.81,71850.0,-11.91,-13.97,-13.83,0,*58
1512803024.3,1218,4.81,71848.0,-11.95,-13.97,-13.97,0,*56
1512803025.57,1219,4.81,71846.3,-11.91,-13.97,-13.83,0,*56
1512803026.81,1220,4.81,71846.5,-11.91,-14.05,-13.93,0,*51
1512803028.05,1221,4.81,71844.3,-11.91,-13.83,-13.73,0,*57
1512803029.31,1222,4.81,71842.0,-11.95,-13.83,-13.79,0,*5A
1512803030.56,1223,4.81,71844.0,-11.95,-14.11,-13.97,0,*57
1512803031.83,1224,4.81,71850.3,-11.95,-14.05,-13.97,0,*55
1512803033.1,1225,4.81,71848.8,-11.95,-14.05,-13.83,0,*51
1512803034.37,1226,4.81,71848.8,-11.95,-14.05,-13.97,0,*57
1512803035.64,1227,4.81,71850.5,-11.91,-14.05,-13.97,0,*52
1512803036.86,1228,4.81,71848.8,-11.95,-14.37,-14.23,0,*50
1512803038.07,1229,4.81,71846.3,-11.95,-14.23,-14.11,0,*55
1512803039.32,1230,4.81,71850.8,-11.95,-14.19,-14.05,0,*51
1512803040.53,1231,4.81,71848.5,-11.95,-14.33,-14.33,0,*5D
1512803041.77,1232,4.81,71848.8,-11.97,-14.37,-14.23,0,*59
1512803043.04,1233,4.81,71850.8,-11.97,-14.11,-13.97,0,*54
1512803044.28,1234,4.81,71850.5,-11.97,-14.11,-14.11,0,*5A
1512803045.52,1235,4.81,71852.3,-11.99,-14.11,-14.01,0,*54
1512803046.8,1236,4.81,71848.0,-11.97,-14.15,-14.01,0,*5D
1512803048.08,1237,4.81,71848.8,-11.97,-13.97,-13.87,0,*58
1512803049.35,1238,4.81,71852.8,-11.97,-13.83,-13.69,0,*52
1512803050.59,1239,4.81,71852.3,-11.97,-14.23,-14.15,0,*52
1512803051.83,1240,4.81,71854.3,-11.97,-14.29,-14.29,0,*59
1512803053.09,1241,4.81,71854.8,-11.99,-14.51,-14.43,0,*55
1512803054.33,1242,4.81,71854.3,-11.99,-14.51,-14.37,0,*55
1512803055.54,1243,4.81,71854.0,-11.99,-14.29,-14.23,0,*5E
1512803056.75,1244,4.81,71850.3,-11.99,-14.29,-14.29,0,*53
1512803058.0,1245,4.81,71854.3,-11.99,-14.11,-14.01,0,*53
1512803059.21,1246,4.81,71854.3,-11.99,-14.29,-14.29,0,*51
1512803060.42,1247,4.81,71852.5,-11.99,-14.29,-14.23,0,*5A
1512803061.64,1248,4.81,71854.3,-11.99,-14.15,-14.15,0,*5F
1512803062.85,1249,4.81,71862.3,-11.99,-14.33,-14.33,0,*5E
1512803064.12,1250,4.75,71854.0,-11.99,-14.47,-14.55,0,*55
1512803065.36,1251,4.81,71862.3,-11.99,-14.43,-14.29,0,*5B
1512803066.57,1252,4.81,71860.3,-11.99,-14.33,-14.19,0,*5C
1512803067.78,1253,4.81,71860.0,-11.99,-14.33,-14.19,0,*5D
1512803069.02,1254,4.81,71858.8,-11.99,-14.47,-14.33,0,*51
1512803070.25,1255,4.81,71854.3,-11.99,-14.33,-14.43,0,*54
1512803071.49,1256,4.81,71850.5,-12.01,-14.33,-14.33,0,*52
1512803072.7,1257,4.81,71848.3,-11.99,-14.29,-14.29,0,*51
1512803073.99,1258,4.81,71842.5,-12.01,-14.05,-14.01,0,*58
1512803075.28,1259,4.81,71840.3,-12.01,-14.01,-13.87,0,*54
1512803076.55,1260,4.81,71838.8,-12.01,-14.01,-13.93,0,*5B
1512803077.78,1261,4.81,71842.8,-11.99,-14.01,-13.93,0,*58
1512803079.08,1262,4.81,71842.5,-12.01,-14.01,-14.05,0,*51
1512803080.31,1263,4.81,71846.0,-11.99,-14.01,-13.93,0,*5A
1512803081.54,1264,4.81,71844.0,-12.01,-13.93,-13.93,0,*53
1512803082.77,1265,4.81,71848.5,-11.99,-13.93,-13.87,0,*55
1512803084.03,1266,4.81,71844.3,-12.01,-14.01,-13.93,0,*5D
1512803085.24,1267,4.81,71844.5,-11.99,-14.29,-14.19,0,*51
1512803086.48,1268,4.81,71844.0,-12.05,-14.19,-14.05,0,*56
1512803087.69,1269,4.81,71844.8,-11.99,-13.93,-13.93,0,*5C
1512803088.92,1270,4.81,71844.3,-11.99,-13.93,-13.83,0,*55
1512803090.15,1271,4.81,71848.8,-11.99,-13.87,-13.73,0,*5E
1512803091.38,1272,4.81,71848.5,-11.99,-13.93,-13.83,0,*57
1512803092.63,1273,4.81,71846.0,-12.01,-13.93,-13.87,0,*50
1512803093.86,1274,4.81,71848.8,-11.99,-13.93,-13.87,0,*55
1512803095.1,1275,4.81,71852.0,-11.99,-14.01,-13.93,0,*5D
1512803096.36,1276,4.81,71854.8,-11.99,-13.87,-13.83,0,*56
1512803097.56,1277,4.81,71852.8,-11.99,-13.93,-13.93,0,*53
1512803098.83,1278,4.81,71850.5,-11.99,-14.05,-14.01,0,*58
1512803100.06,1279,4.81,71852.0,-11.99,-13.93,-13.87,0,*58
1512803101.32,1280,4.81,71852.8,-11.99,-13.87,-13.83,0,*5F
1512803102.55,1281,4.81,71852.8,-11.99,-13.83,-13.73,0,*55
1512803103.81,1282,4.81,71852.3,-11.99,-13.87,-13.83,0,*5D
1512803105.08,1283,4.81,71854.3,-11.99,-14.05,-14.01,0,*5C
1512803106.29,1284,4.81,71858.8,-11.99,-14.33,-14.19,0,*57
1512803107.53,1285,4.81,71854.0,-11.99,-14.43,-14.33,0,*59
1512803108.79,1286,4.81,71858.5,-11.99,-14.47,-14.43,0,*59
1512803110.0,1287,4.81,71856.3,-11.99,-14.33,-14.19,0,*54
1512803111.21,1288,4.81,71852.8,-11.99,-14.29,-14.15,0,*5C
1512803112.43,1289,4.81,71858.3,-11.99,-14.19,-14.15,0,*5E
1512803113.73,1290,4.81,71852.8,-12.01,-14.47,-14.47,0,*58
1512803115.02,1291,4.81,71856.3,-12.01,-14.47,-14.43,0,*5D
1512803116.31,1292,4.81,71848.3,-12.01,-14.55,-14.55,0,*5A
1512803117.56,1293,4.81,71848.0,-12.01,-14.19,-14.15,0,*57
1512803118.85,1294,4.81,71854.3,-12.01,-14.01,-13.87,0,*55
1512803120.14,1295,4.81,71852.3,-12.01,-14.05,-14.05,0,*5D
1512803121.43,1296,4.81,71852.8,-12.01,-14.01,-13.87,0,*57
1512803122.71,1297,4.81,71854.8,-12.01,-13.87,-13.87,0,*5F
1512803123.95,1298,4.81,71854.3,-11.99,-13.87,-13.73,0,*59
1512803125.21,1299,4.81,71852.8,-11.99,-14.01,-13.87,0,*5A
1512803126.5,1300,4.81,71856.0,-12.01,-14.05,-14.05,0,*50
1512803127.79,1301,4.81,71854.5,-12.01,-13.87,-13.87,0,*51
1512803129.03,1302,4.81,71852.8,-12.01,-14.15,-14.15,0,*52
1512803130.31,1303,4.81,71858.8,-12.01,-14.15,-14.05,0,*52
1512803131.52,1304,4.81,71854.3,-11.99,-14.29,-14.33,0,*5D
1512803132.75,1305,4.81,71852.0,-12.01,-14.33,-14.29,0,*5E
1512803134.01,1306,4.81,71854.8,-11.99,-14.43,-14.43,0,*54
1512803135.31,1307,4.81,71852.8,-12.01,-14.01,-14.01,0,*57
1512803136.57,1308,4.81,71854.5,-11.99,-14.01,-14.05,0,*5E
1512803137.87,1309,4.81,71848.3,-12.01,-14.01,-14.01,0,*59
1512803139.13,1310,4.81,71854.3,-12.01,-13.93,-13.87,0,*54
1512803140.39,1311,4.81,71854.3,-12.01,-14.01,-13.93,0,*5C
1512803141.65,1312,4.81,71854.0,-12.01,-13.93,-13.87,0,*56
1512803142.87,1313,4.81,71852.3,-12.01,-13.93,-13.93,0,*52
1512803144.09,1314,4.81,71860.3,-11.99,-14.15,-14.19,0,*5B
1512803145.33,1315,4.81,71862.8,-12.01,-14.29,-14.33,0,*5F
1512803146.57,1316,4.81,71860.5,-12.01,-14.29,-14.33,0,*5C
1512803147.8,1317,4.81,71862.8,-12.01,-14.33,-14.33,0,*56
1512803149.09,1318,4.81,71862.5,-12.01,-14.43,-14.43,0,*59
1512803150.37,1319,4.81,71860.3,-12.01,-14.43,-14.43,0,*58
1512803151.61,1320,4.81,71858.3,-12.01,-14.29,-14.29,0,*52
1512803152.84,1321,4.81,71860.8,-12.01,-14.33,-14.33,0,*53
1512803154.08,1322,4.81,71858.5,-12.01,-14.29,-14.29,0,*50
1512803155.29,1323,4.81,71852.5,-12.05,-14.19,-14.19,0,*55
1512803156.51,1324,4.81,71854.5,-12.05,-14.19,-14.11,0,*5A
1512803157.74,1325,4.81,71852.3,-12.05,-14.11,-14.05,0,*56
1512803158.96,1326,4.81,71854.5,-12.05,-14.33,-14.23,0,*51
1512803160.17,1327,4.81,71852.5,-12.05,-14.33,-14.33,0,*51
1512803161.4,1328,4.81,71850.0,-12.01,-14.29,-14.29,0,*5A
1512803162.64,1329,4.81,71848.3,-12.01,-14.33,-14.29,0,*50
1512803163.85,1330,4.81,71850.0,-12.05,-14.33,-14.33,0,*57
1512803165.06,1331,4.81,71854.8,-12.05,-14.19,-14.19,0,*56
1512803166.3,1332,4.81,71854.0,-12.05,-14.05,-13.93,0,*5D
1512803167.5,1333,4.81,71848.3,-12.05,-13.93,-13.93,0,*54
1512803168.76,1334,4.81,71852.0,-12.05,-13.97,-13.87,0,*52
1512803169.99,1335,4.81,71856.5,-12.01,-13.93,-13.93,0,*56
1512803171.28,1336,4.81,71852.8,-12.01,-14.01,-13.87,0,*5C
1512803172.58,1337,4.81,71852.3,-12.01,-14.05,-14.05,0,*54
1512803173.85,1338,4.81,71858.8,-12.01,-14.15,-14.05,0,*5A
1512803175.12,1339,4.81,71854.3,-12.01,-14.15,-14.05,0,*5B
1512803176.41,1340,4.81,71856.3,-12.01,-14.01,-14.05,0,*50
1512803177.66,1341,4.81,71848.8,-11.99,-14.19,-14.01,0,*5E
1512803178.94,1342,4.81,71852.0,-12.01,-13.87,-13.83,0,*52
1512803180.23,1343,4.81,71852.0,-12.01,-13.83,-13.83,0,*57
1512803181.5,1344,4.81,71850.5,-12.01,-13.83,-13.73,0,*5F
1512803182.76,1345,4.81,71852.3,-12.01,-13.83,-13.73,0,*5E
1512803184.05,1346,4.81,71848.5,-12.01,-13.87,-13.83,0,*56
1512803185.33,1347,4.81,71850.3,-12.01,-13.87,-13.83,0,*57
1512803186.59,1348,4.81,71850.3,-12.01,-13.93,-13.87,0,*59
1512803187.84,1349,4.81,71854.5,-12.01,-13.73,-13.87,0,*56
1512803189.11,1350,4.81,71854.5,-11.99,-13.83,-13.83,0,*57
1512803190.39,1351,4.81,71854.3,-12.01,-13.87,-13.87,0,*54
1512803191.62,1352,4.81,71850.5,-11.99,-13.93,-13.87,0,*50
1512803192.88,1353,4.81,71848.0,-11.99,-13.87,-13.83,0,*50
1512803194.13,1354,4.81,71848.8,-12.01,-13.87,-13.73,0,*5A
1512803195.34,1355,4.81,71850.8,-11.99,-13.73,-13.73,0,*52
1512803196.58,1356,4.81,71856.5,-11.99,-13.73,-13.83,0,*5E
1512803197.81,1357,4.81,71854.3,-11.99,-13.83,-13.73,0,*5F
1512803199.02,1358,4.81,71854.3,-11.99,-13.73,-13.73,0,*5F
1512803200.28,1359,4.81,71848.5,-11.99,-13.87,-13.83,0,*5A
1512803201.52,1360,4.81,71850.8,-11.99,-14.11,-13.97,0,*5D
1512803202.77,1361,4.81,71850.8,-11.99,-14.11,-14.01,0,*54
1512803204.0,1362,4.81,71850.5,-11.99,-14.01,-13.93,0,*5A
1512803205.26,1363,4.81,71848.5,-12.01,-13.93,-13.87,0,*50
1512803206.46,1364,4.81,71848.5,-11.99,-13.69,-13.69,0,*50
1512803207.72,1365,4.81,71850.8,-11.99,-13.87,-13.83,0,*55
1512803208.95,1366,4.81,71848.3,-11.99,-13.93,-13.87,0,*57
1512803210.18,1367,4.81,71852.8,-11.99,-13.93,-13.87,0,*56
1512803211.44,1368,4.81,71852.5,-11.99,-13.87,-13.83,0,*58
1512803212.71,1369,4.81,71850.3,-11.99,-14.01,-14.01,0,*5D
1512803213.98,1370,4.81,71848.3,-11.99,-14.01,-13.97,0,*5D
1512803215.24,1371,4.81,71844.8,-11.99,-13.97,-13.87,0,*55
1512803216.51,1372,4.81,71844.5,-11.99,-14.05,-14.01,0,*53
1512803217.74,1373,4.81,71846.5,-11.99,-13.93,-13.87,0,*53
1512803219.0,1374,4.81,71838.8,-11.99,-13.87,-13.83,0,*55
1512803220.26,1375,4.81,71838.5,-11.99,-13.83,-13.83,0,*50
1512803221.47,1376,4.81,71840.5,-11.99,-13.69,-13.69,0,*53
1512803222.75,1377,4.81,71840.5,-11.97,-13.83,-13.79,0,*59
1512803224.01,1378,4.81,71846.3,-11.99,-13.97,-13.87,0,*5C
1512803225.26,1379,4.81,71844.0,-11.99,-14.11,-14.01,0,*5D
1512803226.53,1380,4.81,71842.8,-11.99,-14.01,-13.97,0,*52
1512803227.77,1381,4.81,71842.3,-11.99,-14.11,-13.97,0,*52
1512803229.04,1382,4.81,71840.5,-11.99,-14.01,-13.87,0,*51
1512803230.29,1383,4.81,71840.0,-11.99,-13.83,-13.79,0,*5C
1512803231.53,1384,4.81,71840.5,-11.99,-13.83,-13.69,0,*5A
1512803232.76,1385,4.81,71846.3,-11.99,-13.79,-13.69,0,*5E
1512803233.96,1386,4.81,71846.3,-11.99,-14.29,-14.11,0,*57
1512803235.17,1387,4.81,71842.5,-11.99,-14.29,-14.11,0,*56
1512803236.39,1388,4.81,71850.5,-11.99,-14.23,-14.15,0,*57
1512803237.65,1389,4.81,71848.8,-11.99,-14.51,-14.43,0,*50
1512803238.89,1390,4.81,71850.8,-11.99,-14.43,-14.29,0,*57
1512803240.1,1391,4.81,71850.0,-11.99,-14.33,-14.33,0,*5A
1512803241.37,1392,4.81,71852.5,-11.99,-14.05,-14.01,0,*5D
1512803242.65,1393,4.81,71844.5,-12.01,-14.55,-14.43,0,*5D
1512803243.92,1394,4.81,71846.0,-12.01,-14.47,-14.29,0,*55
1512803245.17,1395,4.81,71846.0,-11.99,-14.47,-14.33,0,*5D
1512803246.43,1396,4.81,71846.3,-12.01,-14.61,-14.47,0,*5B
1512803247.71,1397,4.81,71844.5,-12.01,-14.43,-14.43,0,*5E
1512803248.98,1398,4.81,71840.8,-12.01,-14.43,-14.29,0,*5D
1512803250.22,1399,4.81,71844.5,-12.05,-14.47,-14.33,0,*57
1512803251.44,1400,4.81,71844.3,-12.05,-14.19,-14.19,0,*53
1512803252.64,1401,4.81,71844.3,-12.05,-14.33,-14.37,0,*56
1512803253.91,1402,4.81,71842.3,-12.05,-14.51,-14.47,0,*56
1512803255.21,1403,4.81,71840.3,-12.07,-14.51,-14.47,0,*55
1512803256.44,1404,4.81,71842.5,-12.05,-14.75,-14.65,0,*56
1512803257.73,1405,4.81,71842.8,-12.07,-14.83,-14.79,0,*51
1512803258.99,1406,4.81,71840.3,-12.07,-15.07,-14.97,0,*5F
1512803260.23,1407,4.81,71844.0,-12.07,-15.07,-15.11,0,*51
1512803261.46,1408,4.81,71844.0,-12.07,-15.07,-15.07,0,*59
1512803262.66,1409,4.81,71840.8,-12.09,-14.89,-14.89,0,*56
1512803263.86,1410,4.81,71840.5,-12.09,-14.69,-14.69,0,*5E
1512803265.05,1411,4.81,71840.0,-12.09,-14.69,-14.69,0,*5F
1512803266.28,1412,4.81,71844.3,-12.11,-14.65,-14.65,0,*55
1512803267.55,1413,4.81,71840.3,-12.11,-14.51,-14.37,0,*54
1512803268.8,1414,4.81,71846.3,-12.09,-14.43,-14.43,0,*5A
1512803270.03,1415,4.81,71842.8,-12.11,-14.29,-14.23,0,*58
1512803271.27,1416,4.81,71838.5,-12.11,-14.29,-14.23,0,*5B
1512803272.51,1417,4.81,71838.3,-12.11,-14.23,-14.15,0,*55
1512803273.8,1418,4.81,71838.8,-12.11,-14.01,-13.97,0,*57
1512803275.07,1419,4.81,71844.0,-12.11,-14.11,-13.97,0,*57
1512803276.28,1420,4.81,71842.5,-12.09,-14.23,-14.15,0,*58
1512803277.49,1421,4.81,71844.3,-12.09,-14.37,-14.23,0,*59
1512803278.72,1422,4.81,71846.0,-12.11,-14.11,-14.11,0,*56
1512803279.96,1423,4.81,71844.0,-12.09,-14.11,-13.97,0,*57
1512803281.19,1424,4.81,71850.5,-12.09,-14.11,-14.01,0,*58
1512803282.46,1425,4.81,71846.5,-12.09,-14.01,-13.97,0,*50
1512803283.69,1426,4.81,71846.0,-12.07,-13.93,-13.93,0,*55
1512803284.91,1427,4.81,71850.5,-12.09,-14.01,-13.93,0,*56
1512803286.18,1428,4.81,71848.0,-12.09,-14.01,-14.01,0,*55
1512803287.38,1429,4.81,71846.8,-12.09,-14.23,-14.11,0,*55
1512803288.62,1430,4.81,71844.3,-12.07,-14.11,-14.11,0,*52
1512803289.88,1431,4.81,71844.3,-12.07,-14.05,-13.93,0,*5B
1512803291.13,1432,4.81,71846.0,-12.07,-13.93,-13.87,0,*55
1512803292.38,1433,4.81,71844.3,-12.07,-13.93,-13.79,0,*55
1512803293.62,1434,4.81,71844.8,-12.07,-14.23,-14.19,0,*5F
1512803294.85,1435,4.81,71842.5,-12.07,-14.23,-14.11,0,*56
1512803296.14,1436,4.81,71840.8,-12.07,-14.05,-14.05,0,*54
1512803297.44,1437,4.81,71844.0,-12.07,-14.05,-13.97,0,*59
1512803298.73,1438,4.81,71842.3,-12.07,-13.97,-13.97,0,*5A
1512803299.97,1439,4.81,71844.8,-12.05,-14.05,-13.93,0,*51
1512803301.23,1440,4.81,71842.5,-12.07,-14.11,-14.05,0,*50
1512803302.5,1441,4.81,71844.0,-12.07,-14.11,-13.97,0,*5D
1512803303.73,1442,4.81,71840.5,-12.05,-13.97,-13.93,0,*51
1512803305.0,1443,4.81,71844.0,-12.07,-13.97,-13.93,0,*52
1512803306.29,1444,4.81,71844.0,-12.07,-14.05,-13.97,0,*5D